When you browse on this site, cookies collect data to enhance your experience and personalize the content and advertising you see.
Visit our Privacy Policy to learn more. By continuing to use the site, you agree to this use of cookies and data.
  • In Sweden
  • List of Countries
  • For 7 days
  • Water Temperature
  • Weather Map
  • Weather Widgets
  • user-avatar
    Login

    Hourly Weather Skalnyy

    Today, 21 September, Saturday

    Time Temperature Precipitation Wind Pressure Humidity
    00:00 0°C° 0 mm 1 mps 731 mmHg 90%
    01:00 0°C° 0 mm 1 mps 731 mmHg 92%
    02:00 0°C° 0 mm 1 mps 731 mmHg 92%
    03:00 +1°C° 0 mm 1 mps 731 mmHg 92%
    04:00 +1°C° 0 mm 1 mps 731 mmHg 91%
    05:00 +1°C° 0 mm 1 mps 731 mmHg 91%
    06:00 +2°C° 0 mm 1 mps 731 mmHg 92%
    07:00 +3°C° 0 mm 1 mps 731 mmHg 92%
    08:00 +4°C° 0 mm 1 mps 730 mmHg 91%
    09:00 +4°C° 0 mm 2 mps 730 mmHg 89%
    10:00 +4°C° 0 mm 2 mps 730 mmHg 88%
    11:00 +5°C° 0.1 mm 3 mps 730 mmHg 83%
    12:00 +7°C° 0.1 mm 3 mps 729 mmHg 77%
    13:00 +7°C° 0.1 mm 4 mps 728 mmHg 72%
    14:00 +7°C° 0.4 mm 4 mps 728 mmHg 76%
    15:00 +7°C° 0.4 mm 4 mps 727 mmHg 81%
    16:00 +8°C° 0.4 mm 3 mps 727 mmHg 86%
    17:00 +7°C° 0.7 mm 3 mps 726 mmHg 89%
    18:00 +5°C° 0.7 mm 2 mps 726 mmHg 93%
    19:00 +5°C° 0.7 mm 1 mps 725 mmHg 96%
    20:00 +5°C° 0.1 mm 1 mps 725 mmHg 97%
    21:00 +4°C° 0.1 mm 1 mps 725 mmHg 97%
    22:00 +3°C° 0.1 mm 1 mps 724 mmHg 97%
    23:00 +3°C° 0 mm 1 mps 724 mmHg 98%

    Tomorrow, 22 September, Sunday

    Time Temperature Precipitation Wind Pressure Humidity
    00:00 +3°C° 0 mm 1 mps 724 mmHg 98%
    01:00 +3°C° 0 mm 1 mps 724 mmHg 98%
    02:00 +3°C° 0 mm 1 mps 723 mmHg 97%
    03:00 +3°C° 0 mm 1 mps 723 mmHg 96%
    04:00 +3°C° 0 mm 1 mps 723 mmHg 96%
    05:00 +2°C° 0 mm 2 mps 722 mmHg 95%
    06:00 +2°C° 0 mm 2 mps 722 mmHg 93%
    07:00 +2°C° 0 mm 2 mps 722 mmHg 92%
    08:00 +2°C° 0 mm 2 mps 721 mmHg 90%
    09:00 +2°C° 0 mm 2 mps 721 mmHg 88%
    10:00 +2°C° 0 mm 3 mps 721 mmHg 87%
    11:00 +2°C° 0 mm 3 mps 721 mmHg 86%
    12:00 +2°C° 0 mm 3 mps 721 mmHg 85%
    13:00 +1°C° 0 mm 3 mps 721 mmHg 84%
    14:00 +1°C° 0 mm 3 mps 721 mmHg 83%
    15:00 +3°C° 0 mm 2 mps 721 mmHg 81%
    16:00 +3°C° 0 mm 2 mps 721 mmHg 79%
    17:00 +2°C° 0 mm 2 mps 721 mmHg 81%
    18:00 +2°C° 0 mm 1 mps 720 mmHg 82%
    19:00 +2°C° 0 mm 1 mps 720 mmHg 83%
    20:00 +1°C° 0 mm 1 mps 720 mmHg 86%
    21:00 0°C° 0 mm 1 mps 720 mmHg 90%
    22:00 -1°C° 0 mm 1 mps 720 mmHg 93%
    23:00 -1°C° 0 mm 1 mps 720 mmHg 93%

    Day after tomorrow, 23 September, Monday

    Time Temperature Precipitation Wind Pressure Humidity
    00:00 -2°C° 0 mm 1 mps 720 mmHg 94%
    01:00 -2°C° 0 mm 1 mps 719 mmHg 95%
    02:00 -2°C° 0 mm 1 mps 719 mmHg 95%
    03:00 -2°C° 0 mm 1 mps 719 mmHg 95%
    04:00 -2°C° 0 mm 1 mps 719 mmHg 94%
    05:00 -1°C° 0 mm 1 mps 719 mmHg 92%
    06:00 -1°C° 0 mm 1 mps 719 mmHg 89%
    07:00 0°C° 0 mm 1 mps 718 mmHg 86%
    08:00 +1°C° 0 mm 2 mps 718 mmHg 77%
    09:00 +2°C° 0 mm 2 mps 718 mmHg 69%
    10:00 +3°C° 0 mm 3 mps 718 mmHg 61%
    11:00 +4°C° 0 mm 3 mps 717 mmHg 57%
    12:00 +5°C° 0 mm 4 mps 717 mmHg 53%
    13:00 +6°C° 0 mm 4 mps 716 mmHg 48%
    14:00 +5°C° 0 mm 4 mps 716 mmHg 51%
    15:00 +5°C° 0 mm 3 mps 716 mmHg 53%
    16:00 +5°C° 0 mm 3 mps 716 mmHg 55%
    17:00 +3°C° 0 mm 3 mps 716 mmHg 62%
    18:00 +3°C° 0 mm 2 mps 716 mmHg 68%
    19:00 +2°C° 0 mm 2 mps 717 mmHg 75%
    20:00 +1°C° 0 mm 2 mps 717 mmHg 77%
    21:00 -1°C° 0 mm 2 mps 718 mmHg 79%
    22:00 -1°C° 0 mm 2 mps 718 mmHg 81%
    23:00 -2°C° 0 mm 2 mps 719 mmHg 84%

    24 September, Tuesday

    Time Temperature Precipitation Wind Pressure Humidity
    00:00 -3°C° 0 mm 2 mps 719 mmHg 87%
    01:00 -2°C° 0 mm 1 mps 720 mmHg 90%
    02:00 -2°C° 0 mm 1 mps 721 mmHg 92%
    03:00 -2°C° 0 mm 1 mps 721 mmHg 94%
    04:00 -3°C° 0 mm 1 mps 722 mmHg 96%
    05:00 -2°C° 0 mm 1 mps 722 mmHg 94%
    06:00 -2°C° 0 mm 1 mps 723 mmHg 93%
    07:00 -2°C° 0 mm 1 mps 723 mmHg 91%
    08:00 -2°C° 0 mm 2 mps 724 mmHg 82%
    09:00 0°C° 0 mm 3 mps 724 mmHg 72%
    10:00 +2°C° 0 mm 3 mps 725 mmHg 63%
    11:00 +2°C° 0 mm 3 mps 725 mmHg 61%
    12:00 +2°C° 0 mm 3 mps 725 mmHg 59%
    13:00 +3°C° 0 mm 4 mps 725 mmHg 57%
    14:00 +3°C° 0 mm 4 mps 725 mmHg 58%
    15:00 +3°C° 0 mm 4 mps 725 mmHg 59%
    16:00 +3°C° 0 mm 4 mps 726 mmHg 60%
    17:00 +1°C° 0.1 mm 3 mps 726 mmHg 70%
    18:00 0°C° 0.1 mm 3 mps 726 mmHg 79%
    19:00 -1°C° 0.1 mm 3 mps 726 mmHg 88%
    20:00 -1°C° 0 mm 3 mps 726 mmHg 90%
    21:00 -2°C° 0 mm 3 mps 726 mmHg 91%
    22:00 -2°C° 0 mm 3 mps 726 mmHg 93%
    23:00 -2°C° 0.2 mm 3 mps 726 mmHg 94%

    25 September, Wednesday

    Time Temperature Precipitation Wind Pressure Humidity
    00:00 -2°C° 0.2 mm 3 mps 726 mmHg 95%
    01:00 -2°C° 0.2 mm 3 mps 726 mmHg 96%
    02:00 -1°C° 0.2 mm 3 mps 726 mmHg 95%
    03:00 -1°C° 0.2 mm 3 mps 726 mmHg 94%
    04:00 -2°C° 0.2 mm 4 mps 726 mmHg 94%
    05:00 -2°C° 0.1 mm 4 mps 726 mmHg 93%
    06:00 -3°C° 0.1 mm 4 mps 726 mmHg 93%
    07:00 -3°C° 0.1 mm 4 mps 726 mmHg 92%
    08:00 -2°C° 0.1 mm 4 mps 727 mmHg 90%
    09:00 -1°C° 0.1 mm 4 mps 727 mmHg 88%
    10:00 -1°C° 0.1 mm 5 mps 727 mmHg 86%
    11:00 -1°C° 0.1 mm 5 mps 727 mmHg 85%
    12:00 0°C° 0.1 mm 5 mps 727 mmHg 83%
    13:00 0°C° 0.1 mm 5 mps 727 mmHg 81%
    14:00 0°C° 0.2 mm 5 mps 728 mmHg 83%
    15:00 0°C° 0.2 mm 5 mps 728 mmHg 85%
    16:00 0°C° 0.2 mm 4 mps 728 mmHg 87%
    17:00 -1°C° 0.1 mm 4 mps 728 mmHg 90%
    18:00 -1°C° 0.1 mm 4 mps 728 mmHg 92%
    19:00 -2°C° 0.1 mm 4 mps 728 mmHg 95%
    20:00 -2°C° 0 mm 4 mps 728 mmHg 94%
    21:00 -2°C° 0 mm 4 mps 728 mmHg 94%
    22:00 -2°C° 0 mm 4 mps 728 mmHg 94%
    23:00 -2°C° 0 mm 5 mps 728 mmHg 93%

    26 September, Thursday

    Time Temperature Precipitation Wind Pressure Humidity
    00:00 -2°C° 0 mm 5 mps 728 mmHg 93%
    01:00 -2°C° 0 mm 5 mps 728 mmHg 92%
    02:00 -4°C° 0.1 mm 5 mps 728 mmHg 93%
    03:00 -4°C° 0.1 mm 5 mps 729 mmHg 94%
    04:00 -4°C° 0.1 mm 5 mps 729 mmHg 95%
    05:00 -4°C° 0.2 mm 5 mps 729 mmHg 94%
    06:00 -4°C° 0.2 mm 5 mps 729 mmHg 93%
    07:00 -4°C° 0.2 mm 5 mps 729 mmHg 92%
    08:00 -2°C° 0.2 mm 5 mps 729 mmHg 91%
    09:00 -2°C° 0.2 mm 5 mps 729 mmHg 90%
    10:00 -2°C° 0.2 mm 5 mps 730 mmHg 88%
    11:00 -1°C° 0.1 mm 5 mps 730 mmHg 87%
    12:00 -1°C° 0.1 mm 5 mps 730 mmHg 85%
    13:00 0°C° 0.1 mm 5 mps 730 mmHg 83%
    14:00 -1°C° 0.1 mm 5 mps 730 mmHg 85%
    15:00 -1°C° 0.1 mm 5 mps 731 mmHg 86%
    16:00 -1°C° 0.1 mm 4 mps 731 mmHg 87%
    17:00 -1°C° 0.1 mm 4 mps 731 mmHg 90%
    18:00 -2°C° 0.1 mm 4 mps 731 mmHg 93%
    19:00 -2°C° 0.1 mm 4 mps 731 mmHg 96%
    20:00 -3°C° 0.1 mm 4 mps 731 mmHg 95%
    21:00 -3°C° 0.1 mm 4 mps 731 mmHg 95%
    22:00 -2°C° 0.1 mm 3 mps 731 mmHg 95%
    23:00 -2°C° 0.1 mm 3 mps 732 mmHg 95%
    Show more